Regional Weather Roundup
Issued by NWS Wilmington, NC

Home | Current Version | Previous Version | Text Only | Print | Product List | Glossary On
Versions: 1 2 3 4 5 6 7 8 9 10 11 12 13 14 15 16 17 18 19 20 21 22 23 24 25 26 27
000
ASUS42 KILM 312313
RWRILM
RWRILM
REGIONAL HOURLY WEATHER ROUNDUP
NATIONAL WEATHER SERVICE WILMINGTON NC
700 PM EDT TUE MAY 31 2016

NOTE: "FAIR" INDICATES FEW OR NO CLOUDS BELOW 12,000 FEET WITH NO
SIGNIFICANT WEATHER AND/OR OBSTRUCTIONS TO VISIBILITY.

...............WFO WILMINGTON COUNTY WARNING AREA...............

......COASTAL NC AND SC COUNTIES......

CITY           SKY/WX    TMP DP  RH WIND       PRES   REMARKS
WILMINGTON     LGT RAIN  75  73  93 NE9       29.89R
N MYRTLE BEACH CLOUDY    77  72  84 N8        29.88R
MYRTLE BEACH   MOSUNNY   75  66  73 N8        29.91R

......INLAND NC AND SC COUNTIES.......

CITY           SKY/WX    TMP DP  RH WIND       PRES   REMARKS
LUMBERTON      CLOUDY    80  69  69 E8        29.90R
ELIZABETHTOWN  CLOUDY    75  72  90 CALM      29.91R
WHITEVILLE     CLOUDY    74  71  88 CALM      29.90S
FLORENCE       MOSUNNY   84  69  60 NE9       29.90R
DARLINGTON     CLOUDY    82  72  71 NW3       29.91R
KINGSTREE      FAIR      84  64  51 N3        29.88R
HARTSVILLE     FAIR      82  68  61 NE7       29.90R
BENNETTSVILLE  PTSUNNY   82  72  69 N6        29.89S
CONWAY         FAIR      72  70  94 N5        29.90R
GEORGETOWN     PTSUNNY   72  70  94 CALM      29.90R
MARION         PTSUNNY   77  68  73 E6        29.91R

....................REST OF NORTH CAROLINA......................

.........EASTERN NC.........

CITY           SKY/WX    TMP DP  RH WIND       PRES   REMARKS
CAPE HATTERAS  MOSUNNY   76  70  82 NE7       29.93S
JACKSONVILLE   CLOUDY    75  72  90 NE9       29.91S
MOREHEAD CITY  PTSUNNY   78  73  84 E8        29.91R
KENANSVILLE    CLOUDY    75  71  87 CALM      29.92S
NEW BERN       CLOUDY    74  71  91 NE6       29.93S
ELIZABETH CITY CLOUDY    76  67  73 E10       29.95S

.........CENTRAL NC.........

CITY           SKY/WX    TMP DP  RH WIND       PRES   REMARKS
RALEIGH DURHAM PTSUNNY   82  66  58 NE10      29.93R
ROCKY MOUNT    CLOUDY    80  70  71 SE7       29.92R
ROANOKE RAPIDS NOT AVBL
FAYETTEVILLE   CLOUDY    80  70  71 E9        29.91R
HOFFMAN        PTSUNNY   84  67  56 NE7       29.90R

.........WESTERN NC.........

CITY           SKY/WX    TMP DP  RH WIND       PRES   REMARKS
CHARLOTTE      TSTM      71  66  84 NW13      29.94R
GREENSBORO     MOSUNNY   83  63  50 E9        29.94S
HICKORY        NOT AVBL
BOONE          NOT AVBL
ASHEVILLE      NOT AVBL

.....................REST OF SOUTH CAROLINA.....................

.........EASTERN SC.........

CITY           SKY/WX    TMP DP  RH WIND       PRES   REMARKS
CHARLESTON     MOSUNNY   83  71  67 S7        29.88R
BEAUFORT MCAS  SUNNY     88  68  51 N5        29.87F HX  91
HILTON HEAD    SUNNY     86  73  66 S9        29.89S HX  93

.........CENTRAL SC.........

CITY           SKY/WX    TMP DP  RH WIND       PRES   REMARKS
COLUMBIA       TSTM      79  68  69 N8G28     29.89R
ORANGEBURG     MOSUNNY   89  68  49 CALM      29.87F HX  93
SUMTER SHAW    MOSUNNY   85  69  57 NE12      29.86S

.........WESTERN SC.........

CITY           SKY/WX    TMP DP  RH WIND       PRES   REMARKS
GREENVILLE     NOT AVBL
ROCK HILL      TSTM      79  66  64 N14       29.94R
ANDERSON       MOSUNNY   84  65  52 NE14G22   29.92R THUNDER
CLEMSON        NOT AVBL
GREENWOOD      MOSUNNY   87  66  49 N8        29.92S


...................COASTAL AND OFFSHORE REPORTS..................

................LOCAL PIERS AND NC RESERVE................


STATION/POSITION TIME  SKY/WX   TEMP    WIND        PRES    VSBY
                                AIR SEA DIR/SP/G
                 (UTC)          (F)     (DEG/KT/KT) (MB)    (MI)
JOHNY MRCER PIER 2200               79              1010.7R
NC RESRV MASNBRO NOT AVBL
OCEAN CREST PIER NOT AVBL
SPRINGMAID  PIER 2200               78              1011.3R


................COASTAL AND OFFSHORE BUOYS................


STATION/POSITION TIME  SKY/WX   TEMP    WIND        PRES    VSBY
                                AIR SEA DIR/SP/G
                 (UTC)          (F)     (DEG/KT/KT) (MB)    (MI)
DIMNDSHOAL 41025 2150            78 81  170/  4/  6 1013.1
WVE H/P(F/S)=  4/ 8 SWL H/P/D(F/S/D)=  3/150/ 8

CAPE LOOKOUT     2300            75      50/ 12/ 12 1012.3R
ONSLOW BAY 41036 NOT AVBL
ONSLOW BAY 41064 2208            77 76   70/  6/ 10 1011.9R
ONSLOW BAY 41159 2225               76                N/A
WVE H/P(F/S)=  4/ 6

5SE WRITBC 41038 NOT AVBL
MASNBO INL 41110 2206               76                N/A
WVE H/P(F/S)=  4/ 8

WILM HARBR 41108 2226               75                N/A
WVE H/P(F/S)=  3/ 8

27SE WRITB 41037 2208            78 76  110/  6/ 10 1010.8F
FRYING PAN 41013 2300            78 80  180/  8/ 10 1010.1R
SUNST NRSH 41024 2208            74 77   50/ 16/ 19 1010.6F
CAPRS NRSH 41029 2208            76 77   60/ 10/ 14 1010.7F
EDISTO     41004 2250            76 78  260/  8/ 10 1011.7R
WVE H/P(F/S)=  3/ 8 SWL H/P/D(F/S/D)=  3/ 8



..........OFFSHORE BUOYS BEYOND 100 NM OFFSHORE...........
.....IN A TRIANGLE---HAT TO BERMUDA TO BAHAMAS TO HAT.....


STATION/POSITION TIME  SKY/WX   TEMP    WIND        PRES    VSBY
                                AIR SEA DIR/SP/G
                 (UTC)          (F)     (DEG/KT/KT) (MB)    (MI)
150E HAT   41001 NOT AVBL
W BERMUDA  41048 2250            76 76  160/  8/ 10 1016.4R
WVE H/P(F/S)=  5/ 8 SWL H/P/D(F/S/D)=  5/140/ 8

ATLANTIC S 41049 2250            78 79  110/ 12/ 14 1020.5R
WVE H/P(F/S)=  3/ 6 SWL H/P/D(F/S/D)=  2/140/ 6

E BAHAMAS  41046 2300            74 81   60/ 10/ 14 1016.9R
NE BAHAMAS 41047 2200            76 80  300/  6/ 10 1014.9F
120E CANVRL41010 2220            80 80  200/  8/  8 1013.3S

END




USA.gov is the U.S. government's official web portal to all federal, state and local government web resources and services.